STARLINK-11414 [DTC]

Last updated on Thu Nov 21 2024 00:02:06 GMT+0000 (Coordinated Universal Time)

1 61948U 24209K 24325.66668981 -.00904796 00000+0 -32476-2 0 9991 2 61948 53.1661 191.8794 0000477 81.2220 320.3469 15.90049274 2228
UTC large
Height (km)
Speed (km/s)
/
Latitude / Longitude
Inclination (degrees)
Orbital Period (minutes)
Azimuth
Elevation
Range (km)
Doppler Factor

Next 0 passes for location: London (51.5072 / 0.1276)

Sorry there are no passes over London.